Regional Weather Roundup
Issued by NWS Newport/Morehead, NC

Current Version | Previous Version | Graphics & Text | Print | Product List | Glossary On
Versions: 1 2 3 4 5 6 7 8 9 10 11 12 13 14 15 16 17 18 19 20 21 22 23 24 25 26 27 28 29 30 31 32 33 34 35 36 37 38 39 40 41 42 43 44 45 46 47 48 49 50
000 ASUS42 KMHX 300310 RWRMHX WEATHER ROUNDUP FOR EASTERN NORTH CAROLINA NATIONAL WEATHER SERVICE NEWPORT/MOREHEAD CITY NC 1000 PM EST THU JAN 29 2015 NOTE: "FAIR" INDICATES FEW OR NO CLOUDS BELOW 12,000 FEET WITH NO SIGNIFICANT WEATHER AND/OR OBSTRUCTIONS TO VISIBILITY NCZ015>017-031-032-045>047-102-103-300400- NORTH COAST CITY SKY/WX TMP DP RH WIND PRES REMARKS EDENTON CLOUDY 41 30 64 S8 30.11S ELIZABETH CITY CLOUDY 40 26 57 S7 30.11F KITTY HAWK CLOUDY 41 29 61 S7 30.10F MANTEO CLOUDY 41 30 65 S12 30.12F $$ NCZ045>047-081-094-103-104-300400- CENTRAL COAST CITY SKY/WX TMP DP RH WIND PRES REMARKS FRISCO CLOUDY 48 38 68 SW10 30.14F SWANQUARTER NOT AVBL $$ NCZ095-097-098-100-101-300400- SOUTHERN COAST CITY SKY/WX TMP DP RH WIND PRES REMARKS BEAUFORT MOCLDY 51 42 71 SW13 30.13F CEDAR ISLAND NOT AVBL JACKSONVILLE CLOUDY 47 37 68 S8 30.12F PINEY ISLAND N/A N/A N/A N/A MISG 30.11F WILMINGTON MOCLDY 48 38 68 S7 30.13F $$ NCZ011>013-027>030-043-044-078>080-089-090>093-098-300400- COASTAL PLAIN CITY SKY/WX TMP DP RH WIND PRES REMARKS AHOSKIE CLEAR 32 22 66 CALM 30.10S CLINTON MOCLDY 46 34 63 SW5 30.12S ELIZABETHTOWN CLOUDY 48 36 64 SW8 30.12S GOLDSBORO MOCLDY 44 36 72 SW2 30.09S GREENVILLE PTCLDY 43 28 56 SW3 30.12F HAVELOCK CLOUDY 47 37 68 SW8 30.12F KENANSVILLE CLOUDY 44 32 62 CALM 30.12S KINSTON MOCLDY 44 31 60 SW6 30.12R NEW BERN CLOUDY 47 34 60 S8 30.11F RICHLANDS CLOUDY 45 34 65 S12 30.11F ROCKY MOUNT PTCLDY 35 24 64 CALM 30.10F WASHINGTON CLOUDY 43 27 53 SW5 30.11F WHITEVILLE DRIZZLE 47 37 68 SW6 30.13F $$ AMZ130-135-150-152-154-156-158-170-250-252-270-ANZ085-086-088-633-658-670-300400- MARINE OBSERVATIONS STATION/POSITION TIME TEMP WIND PRES WAVE SWELL AIR SEA DIR/SP/G HT/PER HT/PER (UTC) (F) (DEG/KT/KT) (MB) (FT/S) (FT/S) CHESAPEAKE LIGHT 0200 41 190/ 18/ 20 1019.3 64 E VA BEACH 0300 45 49 210/ 14/ 17 1019.0 3/11 2/11 DUCK 0300 40 43 190/ 13/ 17 1018.7 2 E DUCK 0300 42 N/A 3/11 2/11 10 NE DUCK 0300 44 N/A 3/11 2/11 OREGON INLET 0300 41 41 180/ 10/ 12 1020.0 13E OREGON INLT 0300 43 N/A 4/12 2/12 HATTERAS CG 0300 49 44 230/ 10/ 14 1020.8 DIAMOND BUOY 0300 55 71 230/ 19/ 23 1020.2 4/ 9 3/ 9 17 S OCRACOKE NOT AVBL CAPE LOOKOUT 0200 51 210/ 7/ 9 1021.2 BEAUFORT LAB 0300 52 46 210/ 8/ 11 1019.0 27 SE WRIGHTSVLE NOT AVBL 5 SE WRIGHTSVLE 0200 53 52 210/ 10/ 12 1021.0 225 S CAPE HAT 0248 59 72 240/ 8/ 14 1024.1 6/10 5/10 41 SE CHARLESTON 0300 62 68 210/ 17/ 21 1020.8 3/10 2/10 $$

USA.gov is the U.S. government's official web portal to all federal, state and local government web resources and services.